Location: ČR
(50.0000°N, 15.0000°E)
Time: 16:39:36
(UTC+01:00)

Courier 1B - Pass Details

Date: 14 February 2026
Orbit: 962 x 1208 km, 28.3° (Epoch: 16 March)

Event Time Altitude Azimuth Distance (km) Brightness Sun altitude
Rises 21:38:02 0° 218° (SW) 4,039 - -41.0°
Reaches altitude 10° 21:43:05 10° 190° (S) 3,114 - -41.7°
Maximum altitude 21:45:47 12° 169° (S) 2,971 - -42.0°
Drops below altitude 10° 21:48:29 10° 149° (SSE) 3,137 - -42.4°
Sets 21:53:37 0° 121° (ESE) 4,104 - -43.0°
